Location: Street
(51.1247°N, 2.7429°W)
Time: 16:34:48
(UTC+01:00)

COSMOS 2251 DEB - Visible Passes

Search period start: 08 September 2024 00:00
Search period end: 18 September 2024 00:00
Orbit: 754 x 785 km, 74.0° (Epoch: 07 September)

Date Brightness Start Highest point End Pass type
(mag) Time Alt. Az. Time Alt. Az. Time Alt. Az.
08 Sep ? 05:52:16 10° S 05:57:29 58° ESE 06:02:45 10° NNE visible
09 Sep ? 05:16:07 10° S 05:20:59 37° ESE 05:25:53 10° NE visible
10 Sep ? 04:40:21 10° SSE 04:44:34 24° E 04:48:49 10° NE visible
11 Sep ? 04:05:11 10° SE 04:08:15 16° E 04:11:19 10° ENE visible
11 Sep ? 05:44:13 10° SSW 05:49:33 89° ESE 05:54:56 10° NNE visible
12 Sep ? 05:07:43 10° S 05:12:56 59° ESE 05:18:12 10° NNE visible
13 Sep ? 04:31:32 10° S 04:36:24 38° ESE 04:41:18 10° NE visible
14 Sep ? 03:56:03 11° SSE 03:59:58 24° E 04:04:13 10° NE visible
14 Sep ? 05:36:22 10° SW 05:41:39 61° WNW 05:46:58 10° NNE visible
15 Sep ? 03:20:39 10° SE 03:23:36 16° E 03:26:41 10° ENE visible
15 Sep ? 05:00:59 19° SSW 05:04:55 90° E 05:10:18 10° NNE visible
16 Sep ? 04:25:29 27° S 04:28:16 59° ESE 04:33:32 10° NNE visible
16 Sep ? 06:06:08 10° WSW 06:10:45 29° NW 06:15:22 10° N visible
17 Sep ? 03:49:57 29° SE 03:51:43 38° ESE 03:56:37 10° NE visible
17 Sep ? 05:30:16 18° WSW 05:33:47 41° NW 05:38:50 10° NNE visible
